CW4517 Weather Reports


time (UTC)temp
C
wind
direction
speed
KPH
gust
KPH
rain 1hr
cm
rain 24hr
cm
rain mn
cm
humidity
%
barometer
mb
20260509205130 22 266 11.3 27.4 0.00 0.00 0.00 37 1000.9
20260509204624 22 309 9.7 24.1 0.00 0.00 0.00 37 1001.0
20260509204117 22 273 9.7 29.0 0.00 0.00 0.00 38 1001.0
20260509203833 22 223 8.0 29.0 0.00 0.00 0.00 36 1001.0
20260509203107 22 260 6.4 12.9 0.00 0.00 0.00 36 1000.9
20260509202601 22 210 6.4 14.5 0.00 0.00 0.00 36 1000.9
20260509202050 22 273 9.7 20.9 0.00 0.00 0.00 35 1000.9
20260509201548 22 309 11.3 30.6 0.00 0.00 0.00 34 1001.0
20260509201048 22 241 11.3 30.6 0.00 0.00 0.00 33 1001.0
20260509200547 22 306 9.7 24.1 0.00 0.00 0.00 33 1001.0
20260509200052 22 277 8.0 22.5 0.00 0.00 0.00 34 1000.8
20260509195546 22 304 8.0 22.5 0.00 0.00 0.00 33 1000.8
20260509195045 23 275 9.7 25.7 0.00 0.00 0.00 34 1000.8
20260509194546 23 235 11.3 25.7 0.00 0.00 0.00 32 1000.8
20260509194045 23 284 8.0 25.7 0.00 0.00 0.00 34 1000.8
20260509193542 23 227 8.0 20.9 0.00 0.00 0.00 34 1000.8
20260509193305 23 290 8.0 17.7 0.00 0.00 0.00 34 1000.7
20260509192542 23 239 8.0 16.1 0.00 0.00 0.00 35 1000.7
20260509192040 23 240 8.0 16.1 0.00 0.00 0.00 35 1000.7
20260509191540 22 284 9.7 19.3 0.00 0.00 0.00 38 1001.1
20260509191040 22 257 8.0 25.7 0.00 0.00 0.00 40 1001.1
20260509190542 22 251 8.0 25.7 0.00 0.00 0.00 41 1001.1
20260509190042 22 205 11.3 27.4 0.00 0.00 0.00 42 1000.9
20260509185539 22 223 12.9 29.0 0.00 0.00 0.00 41 1000.9
20260509185307 23 249 12.9 30.6 0.00 0.00 0.00 41 1000.9
20260509184539 22 271 11.3 30.6 0.00 0.00 0.00 41 1000.8
20260509184039 22 234 11.3 29.0 0.00 0.00 0.00 42 1000.8
20260509183800 22 246 9.7 25.7 0.00 0.00 0.00 42 1000.8
20260509183039 22 257 11.3 25.7 0.00 0.00 0.00 43 1000.7
20260509182542 22 258 12.9 32.2 0.00 0.00 0.00 44 1000.7
20260509182043 22 265 11.3 32.2 0.00 0.00 0.00 45 1000.7
20260509181542 21 235 9.7 22.5 0.00 0.00 0.00 46 1000.8
20260509181040 21 294 8.0 17.7 0.00 0.00 0.00 48 1000.8
20260509180534 21 242 11.3 25.7 0.00 0.00 0.00 48 1000.8
20260509180028 21 227 12.9 30.6 0.00 0.00 0.00 49 1001.2
20260509175743 21 236 12.9 30.6 0.00 0.00 0.00 48 1001.2
20260509175015 21 223 11.3 22.5 0.00 0.00 0.00 49 1001.2
20260509174509 21 211 9.7 22.5 0.00 0.00 0.00 50 1001.2
20260509174004 21 218 11.3 27.4 0.00 0.00 0.00 51 1001.2
20260509173457 21 223 12.9 27.4 0.00 0.00 0.00 50 1001.0
20260509172958 21 227 11.3 27.4 0.00 0.00 0.00 49 1001.0
20260509172450 21 303 9.7 24.1 0.00 0.00 0.00 50 1001.0
20260509171938 20 225 9.7 24.1 0.00 0.00 0.00 52 1001.2
20260509171702 20 267 11.3 22.5 0.00 0.00 0.00 55 1001.2
20260509170926 20 219 11.3 22.5 0.00 0.00 0.00 54 1001.2
20260509170644 20 258 9.7 22.5 0.00 0.00 0.00 55 1001.2
20260509165910 20 265 11.3 29.0 0.00 0.00 0.00 58 1001.2
20260509165408 19 208 9.7 29.0 0.00 0.00 0.00 62 1001.2
20260509165123 19 238 9.7 22.5 0.00 0.00 0.00 64 1001.2
20260509164355 19 211 11.3 22.5 0.00 0.00 0.00 64 1001.2
20260509164109 18 253 9.7 20.9 0.00 0.00 0.00 63 1001.2
20260509163340 18 247 9.7 22.5 0.00 0.00 0.00 64 1001.1
20260509162839 18 243 9.7 22.5 0.00 0.00 0.00 63 1001.1
20260509162558 18 239 12.9 24.1 0.00 0.00 0.00 67 1001.1
20260509162054 18 230 11.3 24.1 0.00 0.00 0.00 68 1001.2
20260509161335 18 221 11.3 24.1 0.00 0.00 0.00 68 1001.2
20260509160835 17 222 11.3 24.1 0.00 0.00 0.00 66 1001.2
20260509160336 17 225 11.3 27.4 0.00 0.00 0.00 70 1001.5
20260509160054 17 245 11.3 27.4 0.00 0.00 0.00 69 1001.5
20260509155335 17 233 11.3 25.7 0.00 0.00 0.00 70 1001.5
20260509154836 17 230 9.7 22.5 0.00 0.00 0.00 70 1001.5
20260509154334 17 240 9.7 25.7 0.00 0.00 0.00 72 1001.5
20260509153838 17 252 11.3 25.7 0.00 0.00 0.00 72 1001.5
20260509153334 16 227 9.7 25.7 0.00 0.00 0.00 72 1001.6
20260509152835 16 235 9.7 20.9 0.00 0.00 0.00 72 1001.6
20260509152831 16 294 9.7 22.5 0.00 0.00 0.00 72 1001.6
20260509151835 16 234 11.3 22.5 0.00 0.00 0.00 74 1001.3
20260509151555 16 190 9.7 20.9 0.00 0.00 0.00 75 1001.3
20260509150836 16 263 9.7 19.3 0.00 0.00 0.00 76 1001.3
20260509150329 15 215 9.7 19.3 0.00 0.00 0.00 77 1001.3
20260509150041 15 192 8.0 17.7 0.00 0.00 0.00 78 1001.3
20260509145319 15 218 9.7 22.5 0.00 0.00 0.00 79 1001.3
20260509144819 14 229 11.3 22.5 0.00 0.00 0.00 79 1001.3
20260509144538 14 243 11.3 22.5 0.00 0.00 0.00 78 1001.3
20260509143819 14 227 11.3 24.1 0.00 0.00 0.00 79 1001.3
20260509143536 14 241 11.3 24.1 0.00 0.00 0.00 79 1001.4
20260509142818 14 263 11.3 29.0 0.00 0.00 0.00 78 1001.4
20260509142539 14 229 9.7 29.0 0.00 0.00 0.00 79 1001.4
20260509141818 14 241 9.7 20.9 0.00 0.00 0.00 79 1001.2
20260509141313 14 245 11.3 22.5 0.00 0.00 0.00 80 1001.2
20260509140804 13 221 11.3 22.5 0.00 0.00 0.00 82 1001.2
20260509140253 13 232 11.3 22.5 0.00 0.00 0.00 82 1001.2
20260509135752 13 252 11.3 24.1 0.00 0.00 0.00 84 1001.2
20260509135246 13 241 11.3 24.1 0.00 0.00 0.00 85 1001.2
20260509134741 12 223 11.3 22.5 0.00 0.00 0.00 86 1001.3
20260509134234 12 206 11.3 22.5 0.00 0.00 0.00 87 1001.3
20260509133724 12 221 11.3 20.9 0.00 0.00 0.00 89 1001.3
20260509133224 12 224 11.3 20.9 0.00 0.00 0.00 90 1001.4
20260509132716 11 231 11.3 22.5 0.00 0.00 0.00 91 1001.4
20260509132210 11 218 9.7 22.5 0.00 0.00 0.00 91 1001.4
20260509131704 11 225 9.7 22.5 0.00 0.00 0.00 92 1001.3
20260509131158 11 240 9.7 24.1 0.00 0.00 0.00 92 1001.3
20260509130652 11 231 8.0 24.1 0.00 0.00 0.00 93 1001.3
20260509130147 10 233 9.7 22.5 0.00 0.00 0.00 93 1001.3
20260509125641 10 252 11.3 22.5 0.00 0.00 0.00 92 1001.3
20260509125134 10 217 11.3 19.3 0.00 0.00 0.00 92 1001.3
20260509124629 10 246 12.9 20.9 0.00 0.00 0.00 93 1001.5
20260509124342 10 223 11.3 20.9 0.00 0.00 0.00 92 1001.5
20260509123611 10 242 9.7 19.3 0.00 0.00 0.00 92 1001.5
20260509123110 10 225 9.7 17.7 0.00 0.00 0.00 92 1001.6
20260509122605 10 215 9.7 19.3 0.00 0.00 0.00 92 1001.6
20260509122057 10 242 9.7 19.3 0.00 0.00 0.00 92 1001.6
20260509121817 10 225 8.0 17.7 0.00 0.00 0.00 92 1001.3
20260509121532 10 215 6.4 17.7 0.00 0.00 0.00 92 1001.3
20260509120540 10 231 8.0 17.7 0.00 0.00 0.00 92 1001.3
20260509120030 10 257 9.7 17.7 0.00 0.00 0.00 92 1000.7
20260509115748 10 249 8.0 19.3 0.00 0.00 0.00 92 1000.7
20260509115244 10 199 8.0 19.3 0.00 0.00 0.00 92 1000.7
20260509114745 10 236 8.0 16.1 0.00 0.00 0.00 92 1000.6
20260509114504 10 221 6.4 14.5 0.00 0.00 0.00 92 1000.6
20260509113501 10 186 6.4 14.5 0.00 0.00 0.00 92 1000.6
20260509113224 10 211 8.0 17.7 0.00 0.00 0.00 92 1000.6
20260509112453 10 209 8.0 17.7 0.00 0.00 0.00 92 1000.6
20260509112205 10 210 8.0 17.7 0.00 0.00 0.00 92 1000.7
20260509111442 10 164 8.0 17.7 0.00 0.00 0.00 92 1000.7
20260509110942 10 248 8.0 20.9 0.00 0.00 0.00 92 1000.7
20260509110442 10 190 6.4 20.9 0.00 0.00 0.00 92 1000.8
20260509110435 10 202 6.4 14.5 0.00 0.00 0.00 92 1000.8
20260509105442 10 207 8.0 16.1 0.00 0.00 0.00 92 1000.8
20260509104943 10 228 8.0 16.1 0.00 0.00 0.00 92 1000.7
20260509104442 10 213 6.4 16.1 0.00 0.00 0.00 92 1000.7
20260509103942 10 211 6.4 16.1 0.00 0.00 0.00 92 1000.7
20260509103442 9 190 6.4 12.9 0.00 0.00 0.00 92 1000.9
20260509102942 9 221 6.4 12.9 0.00 0.00 0.00 92 1000.9
20260509102444 9 221 6.4 12.9 0.00 0.00 0.00 91 1000.9
20260509101946 9 203 6.4 11.3 0.00 0.00 0.00 91 1001.1
20260509101924 9 201 6.4 12.9 0.00 0.00 0.00 91 1001.1
20260509100927 9 217 6.4 12.9 0.00 0.00 0.00 91 1001.1
20260509100416 9 207 6.4 14.5 0.00 0.00 0.00 91 1001.2
20260509095904 9 192 6.4 14.5 0.00 0.00 0.00 91 1001.2
20260509095351 9 167 6.4 12.9 0.00 0.00 0.00 91 1001.2
20260509094838 9 192 6.4 17.7 0.00 0.00 0.00 91 1001.2
20260509094331 9 191 6.4 17.7 0.00 0.00 0.00 91 1001.2
20260509093825 9 209 4.8 11.3 0.00 0.00 0.00 91 1001.2
20260509093318 9 219 4.8 12.9 0.00 0.00 0.00 91 1001.5
20260509092812 9 219 4.8 12.9 0.00 0.00 0.00 91 1001.5
20260509092305 9 190 6.4 12.9 0.00 0.00 0.00 91 1001.5
20260509091800 9 210 4.8 11.3 0.00 0.00 0.00 91 1001.3
20260509091254 9 175 3.2 9.7 0.00 0.00 0.00 91 1001.3
20260509090749 9 215 4.8 8.0 0.00 0.00 0.00 90 1001.3
20260509090242 9 204 3.2 8.0 0.00 0.00 0.00 90 1001.3
20260509085737 9 209 3.2 9.7 0.00 0.00 0.00 90 1001.3
20260509085231 9 203 3.2 9.7 0.00 0.00 0.00 90 1001.3
20260509084719 9 225 4.8 9.7 0.00 0.00 0.00 90 1001.3
20260509084218 9 211 4.8 11.3 0.00 0.00 0.00 90 1001.3
20260509084203 10 210 4.8 11.3 0.00 0.00 0.00 90 1001.3
20260509083206 10 221 4.8 9.7 0.00 0.00 0.00 90 1001.2
20260509082919 10 200 3.2 9.7 0.00 0.00 0.00 90 1001.2
20260509082413 10 211 3.2 8.0 0.00 0.00 0.00 90 1001.2
20260509081648 10 209 4.8 8.0 0.00 0.00 0.00 90 1001.3
20260509081144 9 222 4.8 11.3 0.00 0.00 0.00 90 1001.3
20260509080637 9 233 4.8 11.3 0.00 0.00 0.00 90 1001.3
20260509080132 9 215 3.2 8.0 0.00 0.00 0.00 90 1001.4
20260509075624 9 225 3.2 8.0 0.00 0.00 0.00 90 1001.4
20260509075119 9 207 3.2 8.0 0.00 0.00 0.00 90 1001.4
20260509074829 9 202 4.8 9.7 0.00 0.00 0.00 90 1001.8
20260509074107 9 216 4.8 9.7 0.00 0.00 0.00 89 1001.8
20260509073600 9 231 4.8 9.7 0.00 0.00 0.00 89 1001.8
20260509073053 9 221 4.8 11.3 0.00 0.00 0.00 89 1001.8
20260509072548 10 209 4.8 11.3 0.00 0.00 0.00 89 1001.8
20260509072038 10 225 4.8 9.7 0.00 0.00 0.00 89 1001.8
20260509071535 10 209 4.8 9.7 0.00 0.00 0.00 89 1001.8
20260509071029 10 223 4.8 9.7 0.00 0.00 0.00 89 1001.8
20260509070526 10 219 4.8 8.0 0.00 0.00 0.00 88 1001.8
20260509070026 10 223 4.8 9.7 0.00 0.00 0.00 88 1001.9
20260509065528 10 194 6.4 12.9 0.00 0.00 0.00 88 1001.9
20260509065027 10 225 6.4 12.9 0.00 0.00 0.00 88 1001.9
20260509064527 10 225 4.8 9.7 0.00 0.00 0.00 88 1002.1
20260509064028 10 220 4.8 8.0 0.00 0.00 0.00 88 1002.1
20260509063527 10 215 4.8 9.7 0.00 0.00 0.00 88 1002.1
20260509063251 10 225 4.8 9.7 0.00 0.00 0.00 87 1002.3
20260509062527 10 238 3.2 9.7 0.00 0.00 0.00 87 1002.3
20260509062027 10 226 3.2 8.0 0.00 0.00 0.00 87 1002.3
20260509061529 10 221 4.8 8.0 0.00 0.00 0.00 87 1002.4
20260509061031 10 221 4.8 12.9 0.00 0.00 0.00 87 1002.4
20260509060524 10 205 4.8 12.9 0.00 0.00 0.00 87 1002.4
20260509060012 10 224 6.4 11.3 0.00 0.00 0.00 87 1002.5
20260509055458 10 228 6.4 11.3 0.00 0.00 0.00 86 1002.5
20260509055217 11 217 4.8 11.3 0.00 0.00 0.00 86 1002.5
20260509054443 11 225 6.4 11.3 0.00 0.00 0.00 86 1002.5
20260509053943 11 232 4.8 9.7 0.00 0.00 0.00 86 1002.5
20260509053440 11 220 6.4 11.3 0.00 0.00 0.00 86 1002.6
20260509052940 11 223 6.4 12.9 0.00 0.00 0.00 86 1002.6
20260509052441 11 230 6.4 12.9 0.00 0.00 0.00 85 1002.6
20260509051940 11 229 6.4 11.3 0.00 0.00 0.00 85 1002.4
20260509051442 11 219 6.4 12.9 0.00 0.00 0.00 86 1002.4
20260509051438 11 227 6.4 14.5 0.00 0.00 0.00 86 1002.4
20260509050439 11 192 6.4 14.5 0.00 0.00 0.00 86 1002.8
20260509045939 11 211 8.0 14.5 0.00 0.00 0.00 85 1002.8
20260509045438 11 221 8.0 14.5 0.00 0.00 0.00 85 1002.8
20260509044938 11 215 8.0 12.9 0.00 0.00 0.00 85 1002.9
20260509044433 12 223 6.4 12.9 0.00 0.00 0.00 85 1002.9
20260509043920 12 231 4.8 11.3 0.00 0.00 0.00 85 1002.9
20260509043408 12 220 6.4 11.3 0.00 0.00 0.00 84 1002.9
20260509042856 12 206 6.4 12.9 0.00 0.00 0.00 84 1002.9
20260509042354 12 192 6.4 12.9 0.00 0.00 0.00 84 1002.9
20260509041849 12 220 6.4 12.9 0.00 0.00 0.00 84 1002.9
20260509041602 12 214 6.4 12.9 0.00 0.00 0.00 84 1002.9
20260509040837 12 215 6.4 14.5 0.00 0.00 0.00 84 1002.9
20260509040328 12 227 8.0 16.1 0.00 0.00 0.00 83 1003.1
20260509035824 12 189 8.0 14.5 0.00 0.00 0.00 83 1003.1
20260509035319 12 223 6.4 14.5 0.00 0.00 0.00 83 1003.1
20260509034813 12 236 6.4 14.5 0.00 0.00 0.00 82 1003.3
20260509034534 12 220 6.4 12.9 0.00 0.00 0.00 82 1003.3
20260509033800 12 224 4.8 11.3 0.00 0.00 0.00 82 1003.3
20260509033254 13 221 6.4 11.3 0.00 0.00 0.00 81 1003.1
20260509032744 13 215 6.4 11.3 0.00 0.00 0.00 81 1003.1
20260509032242 13 207 6.4 11.3 0.00 0.00 0.00 80 1003.1
20260509032004 13 218 4.8 11.3 0.00 0.00 0.00 80 1003.1
20260509031450 13 201 6.4 12.9 0.00 0.00 0.00 79 1003.1
20260509030724 13 151 6.4 12.9 0.00 0.00 0.00 78 1003.1
20260509030214 13 217 6.4 12.9 0.00 0.00 0.00 77 1003.3
20260509025712 13 205 4.8 11.3 0.00 0.00 0.00 76 1003.3
20260509025206 13 172 6.4 11.3 0.00 0.00 0.00 76 1003.3
20260509024700 13 181 6.4 11.3 0.00 0.00 0.00 76 1003.3
20260509024154 13 196 4.8 11.3 0.00 0.00 0.00 76 1003.3
20260509023648 13 219 4.8 9.7 0.00 0.00 0.00 76 1003.3
20260509023403 13 203 4.8 9.7 0.00 0.00 0.00 76 1003.3
20260509022632 13 199 4.8 9.7 0.00 0.00 0.00 75 1003.3
20260509022131 13 180 4.8 9.7 0.00 0.00 0.00 75 1003.3
20260509021844 14 254 4.8 9.7 0.00 0.00 0.00 75 1003.1
20260509021122 14 208 4.8 6.4 0.00 0.00 0.00 75 1003.1
20260509020622 14 188 4.8 9.7 0.00 0.00 0.00 75 1003.1
20260509020122 14 227 4.8 9.7 0.00 0.00 0.00 75 1002.9
20260509015622 14 232 4.8 14.5 0.00 0.00 0.00 74 1002.9
20260509015355 14 226 6.4 14.5 0.00 0.00 0.00 74 1002.9
20260509014621 15 180 6.4 12.9 0.00 0.00 0.00 74 1002.8
20260509014122 15 205 6.4 14.5 0.00 0.00 0.00 74 1002.8
20260509013851 15 236 8.0 14.5 0.00 0.00 0.00 74 1002.8
20260509013345 15 212 8.0 14.5 0.00 0.00 0.00 73 1002.7
20260509012849 15 184 6.4 17.7 0.00 0.00 0.00 73 1002.7
20260509012122 15 240 6.4 17.7 0.00 0.00 0.00 73 1002.7
20260509011622 15 209 6.4 12.9 0.00 0.00 0.00 72 1002.9
20260509011122 15 212 6.4 12.9 0.00 0.00 0.00 72 1002.9
20260509010621 15 225 6.4 11.3 0.00 0.00 0.00 71 1002.9
20260509010122 16 210 6.4 12.9 0.00 0.00 0.00 70 1002.8
20260509005615 16 190 4.8 12.9 0.00 0.00 0.00 69 1002.8
20260509005104 16 169 4.8 8.0 0.00 0.00 0.00 68 1002.8
20260509004552 16 170 3.2 8.0 0.00 0.00 0.00 67 1002.7
20260509004041 16 207 3.2 6.4 0.00 0.00 0.00 66 1002.7
20260509003529 16 199 3.2 6.4 0.00 0.00 0.00 65 1002.7
20260509003015 16 179 4.8 11.3 0.00 0.00 0.00 63 1002.7
20260509002725 17 239 4.8 11.3 0.00 0.00 0.00 63 1002.7
20260509002214 17 234 4.8 11.3 0.00 0.00 0.00 63 1002.8
20260509001441 17 224 6.4 11.3 0.00 0.00 0.00 63 1002.8
20260509000940 17 225 6.4 14.5 0.00 0.00 0.00 63 1002.8
20260509000435 17 232 6.4 16.1 0.00 0.00 0.00 63 1002.8
20260508235927 17 220 6.4 16.1 0.00 0.00 0.00 63 1002.8
20260508235421 17 244 8.0 16.1 0.00 0.00 0.00 63 1002.8
20260508234915 17 238 6.4 16.1 0.00 0.00 0.00 64 1002.8
20260508234410 17 250 6.4 12.9 0.00 0.00 0.00 65 1002.8
20260508233859 17 245 8.0 14.5 0.00 0.00 0.00 65 1002.8
20260508233357 17 219 8.0 14.5 0.00 0.00 0.00 65 1002.9
20260508232852 17 241 6.4 12.9 0.00 0.00 0.00 64 1002.9
20260508232346 17 230 6.4 14.5 0.00 0.00 0.00 65 1002.9
20260508231840 17 248 8.0 14.5 0.00 0.00 0.00 65 1002.9
20260508231334 17 225 8.0 16.1 0.00 0.00 0.00 65 1002.9
20260508230829 17 223 9.7 20.9 0.00 0.00 0.00 63 1002.9
20260508230323 18 0 11.3 20.9 0.00 0.00 0.00 63 1002.9
20260508225816 18 219 9.7 22.5 0.00 0.00 0.00 64 1002.9
20260508225309 18 216 8.0 20.9 0.00 0.00 0.00 63 1002.9
20260508224803 18 217 9.7 17.7 0.00 0.00 0.00 62 1002.9
20260508224258 18 227 8.0 17.7 0.00 0.00 0.00 63 1002.9
20260508224012 18 242 8.0 16.1 0.00 0.00 0.00 64 1002.9
20260508223245 18 209 8.0 16.1 0.00 0.00 0.00 63 1002.9
20260508223005 18 257 8.0 16.1 0.00 0.00 0.00 63 1002.9
20260508222233 18 244 6.4 12.9 0.00 0.00 0.00 62 1002.9
20260508221729 18 221 8.0 20.9 0.00 0.00 0.00 61 1003.0
20260508221225 18 209 8.0 20.9 0.00 0.00 0.00 61 1003.0
20260508220725 18 234 8.0 16.1 0.00 0.00 0.00 61 1003.0
20260508220223 18 252 8.0 16.1 0.00 0.00 0.00 60 1002.9
20260508215723 18 231 6.4 16.1 0.00 0.00 0.00 61 1002.9
20260508215222 18 232 8.0 14.5 0.00 0.00 0.00 60 1002.9
20260508214940 18 173 8.0 14.5 0.00 0.00 0.00 60 1003.0
20260508214225 18 245 8.0 14.5 0.00 0.00 0.00 61 1003.0
20260508213720 18 164 8.0 19.3 0.00 0.00 0.00 61 1003.0
20260508213218 18 226 6.4 19.3 0.00 0.00 0.00 60 1003.2
20260508212719 18 261 6.4 14.5 0.00 0.00 0.00 61 1003.2
20260508212219 18 197 8.0 17.7 0.00 0.00 0.00 59 1003.2
20260508211936 18 238 6.4 17.7 0.00 0.00 0.00 58 1003.3
20260508211215 18 240 6.4 12.9 0.00 0.00 0.00 61 1003.3
20260508210714 18 258 6.4 12.9 0.00 0.00 0.00 59 1003.3
20260508210215 18 200 6.4 14.5 0.00 0.00 0.00 58 1003.4
20260508205715 18 229 4.8 16.1 0.00 0.00 0.00 59 1003.4